DW8824 Weather Reports


Display with metric or nautical units.
time (UTC)temp
F
wind
direction
speed
MPH
gust
MPH
rain 1hr
in
rain 24hr
in
rain mn
in
humidity
%
barometer
mb
20260905114904 78 91 7.0 18.0 0.00 0.02 0.00 70 1018.8
20260905114405 78 70 7.0 15.0 0.00 0.02 0.00 69 1018.7
20260905113404 78 90 7.0 15.0 0.00 0.02 0.00 68 1018.8
20260905112904 79 101 5.0 13.0 0.00 0.02 0.00 67 1018.8
20260905111904 79 116 6.0 14.0 0.00 0.02 0.00 66 1018.8
20260905111405 78 78 8.0 14.0 0.00 0.02 0.00 67 1018.8
20260905110404 78 98 7.0 14.0 0.00 0.02 0.00 68 1019.0
20260905105404 78 86 8.0 14.0 0.00 0.02 0.00 69 1019.1
20260905104905 78 101 6.0 15.0 0.00 0.02 0.00 68 1019.1
20260905103905 79 124 7.0 13.0 0.00 0.02 0.00 68 1019.2
20260905102404 79 106 8.0 14.0 0.00 0.02 0.00 68 1019.3
20260905101905 78 96 6.0 17.0 0.00 0.02 0.00 69 1019.3
20260905101405 78 76 7.0 15.0 0.00 0.02 0.00 68 1019.4
20260905100404 78 87 6.0 14.0 0.00 0.02 0.00 68 1019.6
20260905095905 79 105 10.0 15.0 0.00 0.02 0.00 66 1019.7
20260905095404 79 111 7.0 14.0 0.00 0.02 0.00 68 1019.7
20260905094905 78 94 7.0 15.0 0.00 0.02 0.00 67 1019.8
20260905094404 79 89 8.0 16.0 0.00 0.02 0.00 67 1019.9
20260905093404 79 65 7.0 17.0 0.00 0.02 0.00 64 1020.0
20260905092905 79 64 5.0 13.0 0.00 0.02 0.00 66 1020.0
20260905091904 78 87 9.0 18.0 0.00 0.02 0.00 65 1020.0
20260905091404 79 85 7.0 16.0 0.00 0.02 0.00 65 1020.2
20260905090405 78 79 6.0 12.0 0.00 0.02 0.00 68 1020.3
20260905085904 78 85 8.0 14.0 0.00 0.02 0.00 66 1020.3
20260905085405 79 105 6.0 14.0 0.00 0.02 0.00 65 1020.3
20260905084904 78 113 7.0 13.0 0.00 0.02 0.00 65 1020.3
20260905084404 78 80 7.0 13.0 0.00 0.02 0.00 66 1020.3
20260905083404 79 90 6.0 12.0 0.00 0.02 0.00 65 1020.4
20260905082905 78 73 9.0 14.0 0.00 0.02 0.00 64 1020.5
20260905082404 79 106 6.0 13.0 0.00 0.02 0.00 65 1020.6
20260905081904 79 122 6.0 12.0 0.00 0.02 0.00 65 1020.6
20260905081405 78 129 7.0 15.0 0.00 0.02 0.00 65 1020.7
20260905080905 78 91 7.0 14.0 0.00 0.02 0.00 64 1020.7
20260905075904 78 84 8.0 14.0 0.00 0.02 0.00 65 1020.7
20260905075404 78 59 7.0 15.0 0.00 0.02 0.00 66 1020.9
20260905074904 78 131 9.0 15.0 0.00 0.02 0.00 63 1021.0
20260905073404 78 57 6.0 16.0 0.00 0.02 0.00 68 1021.2
20260905072904 78 71 6.0 16.0 0.00 0.02 0.00 69 1021.3
20260905072404 78 78 7.0 14.0 0.00 0.02 0.00 68 1021.4
20260905071404 77 86 8.0 15.0 0.00 0.02 0.00 70 1021.6
20260905070405 77 75 7.0 12.0 0.00 0.02 0.00 71 1021.8
20260905065905 76 85 9.0 15.0 0.00 0.02 0.00 70 1021.8
20260905065404 76 106 8.0 14.0 0.00 0.02 0.00 72 1021.9
20260905063404 76 120 8.0 16.0 0.00 0.02 0.00 74 1022.1
20260905062405 76 115 7.0 16.0 0.00 0.02 0.00 75 1022.1
20260905061904 76 124 7.0 18.0 0.00 0.02 0.00 75 1022.2
20260905060904 76 111 9.0 16.0 0.00 0.02 0.00 73 1022.3
20260905060404 76 98 7.0 17.0 0.00 0.02 0.00 73 1022.3
20260905055904 76 96 9.0 14.0 0.00 0.02 0.00 72 1022.3
20260905055405 76 79 5.0 13.0 0.00 0.02 0.00 74 1022.3
20260905054904 76 101 9.0 18.0 0.00 0.03 0.00 75 1022.4
20260905054404 76 129 7.0 15.0 0.00 0.03 0.00 74 1022.4
20260905053905 77 139 7.0 16.0 0.00 0.03 0.00 74 1022.4
20260905053404 77 56 3.0 15.0 0.00 0.03 0.00 75 1022.3
20260905052905 77 92 6.0 12.0 0.00 0.03 0.00 76 1022.3
20260905052405 76 103 1.0 8.0 0.00 0.03 0.00 78 1022.3
20260905051904 76 99 7.0 15.0 0.00 0.03 0.00 78 1022.2
20260905051405 76 129 6.0 13.0 0.00 0.03 0.00 78 1022.2
20260905050904 75 77 6.0 12.0 0.00 0.03 0.00 79 1022.2
20260905050405 75 117 5.0 12.0 0.00 0.03 0.00 80 1022.2
20260905045905 75 112 5.0 10.0 0.00 0.03 0.00 82 1022.1
20260905045404 74 116 4.0 10.0 0.00 0.03 0.00 82 1022.2
20260905044404 74 133 5.0 10.0 0.00 0.03 0.00 80 1022.3
20260905043904 75 108 3.0 12.0 0.00 0.03 0.00 79 1022.3
20260905043404 75 155 2.0 7.0 0.00 0.03 0.00 80 1022.3
20260905042904 74 103 1.0 6.0 0.00 0.03 0.00 80 1022.3
20260905042405 73 127 3.0 7.0 0.00 0.03 0.00 80 1022.4
20260905041905 73 106 0.0 1.0 0.00 0.03 0.00 82 1022.4
20260905041404 73 158 4.0 10.0 0.00 0.03 0.00 81 1022.5
20260905040404 72 123 2.0 10.0 0.00 0.03 0.00 83 1022.5
20260905035405 71 155 1.0 9.0 0.00 0.03 0.00 84 1022.4
20260905034904 71 120 3.0 9.0 0.00 0.03 0.00 84 1022.5
20260905034404 71 123 3.0 8.0 0.00 0.03 0.00 83 1022.5
20260905033904 71 135 3.0 6.0 0.00 0.03 0.00 83 1022.4
20260905033405 71 80 0.0 5.0 0.00 0.03 0.00 83 1022.4
20260905031904 70 150 0.0 0.0 0.00 0.03 0.00 86 1022.3
20260905031404 70 164 0.0 0.0 0.00 0.03 0.00 86 1022.4
20260905030904 69 164 0.0 0.0 0.00 0.03 0.00 86 1022.3
20260905030404 68 164 0.0 0.0 0.00 0.03 0.00 86 1022.2
20260905025905 68 164 0.0 0.0 0.00 0.03 0.00 86 1022.4
20260905025404 68 165 0.0 0.0 0.00 0.03 0.00 86 1022.1
20260905023904 67 165 0.0 6.0 0.00 0.03 0.00 86 1021.9
20260905023405 67 179 2.0 7.0 0.00 0.03 0.00 86 1021.8
20260905022904 67 151 2.0 5.0 0.00 0.03 0.00 86 1021.7
20260905022404 67 172 0.0 6.0 0.00 0.03 0.00 86 1021.7
20260905021905 67 168 1.0 6.0 0.00 0.03 0.00 86 1021.6
20260905021405 67 166 2.0 6.0 0.00 0.03 0.00 86 1021.6
20260905020404 67 178 0.0 0.0 0.00 0.03 0.00 86 1021.5
20260905015904 67 175 0.0 0.0 0.00 0.03 0.00 86 1021.4
20260905014904 68 180 0.0 0.0 0.00 0.03 0.00 86 1021.2
20260905014404 68 166 0.0 0.0 0.00 0.03 0.00 86 1021.2
20260905013904 68 160 0.0 0.0 0.00 0.03 0.00 86 1021.2
20260905013404 68 172 0.0 0.0 0.00 0.03 0.00 86 1021.1
20260905012904 68 173 0.0 0.0 0.00 0.03 0.00 86 1021.1
20260905012404 68 173 0.0 0.0 0.00 0.03 0.00 86 1021.1
20260905011904 68 173 0.0 0.0 0.00 0.03 0.00 86 1021.1
20260905011404 68 172 0.0 0.0 0.00 0.03 0.00 86 1021.1
20260905010904 68 165 0.0 6.0 0.00 0.03 0.00 86 1021.1
20260905010404 68 191 3.0 6.0 0.00 0.03 0.00 86 1021.1
20260905005904 67 191 0.0 5.0 0.00 0.03 0.00 86 1021.1
20260905004905 67 196 1.0 5.0 0.00 0.03 0.00 87 1021.1
20260905004404 67 184 0.0 0.0 0.00 0.03 0.00 87 1021.1
20260905003905 67 181 0.0 0.0 0.00 0.03 0.00 87 1021.1
20260905003404 67 187 0.0 0.0 0.00 0.03 0.00 87 1021.1
20260905002904 67 186 0.0 0.0 0.00 0.03 0.00 87 1021.1
20260905001905 67 179 0.0 0.0 0.00 0.03 0.00 86 1021.1
20260905001404 67 202 0.0 0.0 0.00 0.03 0.00 86 1021.1
20260905000904 68 183 0.0 0.0 0.00 0.03 0.00 86 1021.1
20260905000404 68 175 2.0 6.0 0.00 0.03 0.00 86 1021.0
20260904235904 68 176 1.0 3.0 0.00 0.03 0.00 86 1021.0
20260904235404 68 176 2.0 6.0 0.00 0.03 0.00 86 1021.0
20260904234904 68 192 1.0 3.0 0.00 0.03 0.00 86 1021.0
20260904234404 68 171 2.0 5.0 0.00 0.03 0.00 86 1021.0
20260904233405 68 185 3.0 6.0 0.00 0.03 0.00 86 1021.0
20260904232904 68 173 3.0 6.0 0.00 0.03 0.00 86 1021.1
20260904232404 68 173 3.0 6.0 0.00 0.03 0.00 86 1021.0
20260904231905 68 191 2.0 5.0 0.00 0.03 0.00 86 1021.1
20260904231404 68 168 3.0 5.0 0.00 0.03 0.00 86 1020.9
20260904230905 68 159 2.0 3.0 0.00 0.03 0.00 86 1021.0
20260904225904 68 175 1.0 3.0 0.00 0.03 0.00 85 1021.0
20260904224904 69 165 2.0 6.0 0.00 0.03 0.00 86 1021.1
20260904223905 69 177 2.0 7.0 0.00 0.03 0.00 86 1021.1
20260904223404 69 150 3.0 5.0 0.00 0.03 0.00 86 1021.1
20260904222404 68 185 1.0 5.0 0.00 0.03 0.00 86 1021.2
20260904221404 68 154 2.0 3.0 0.00 0.03 0.00 86 1021.2
20260904220904 68 156 1.0 5.0 0.00 0.03 0.00 86 1021.3
20260904220404 68 166 4.0 7.0 0.00 0.03 0.00 87 1021.2
20260904215905 68 159 2.0 5.0 0.00 0.03 0.00 87 1021.3
20260904215405 68 161 0.0 0.0 0.00 0.03 0.00 87 1021.4
20260904214904 68 162 0.0 0.0 0.00 0.03 0.00 87 1021.4
20260904214405 68 165 0.0 0.0 0.00 0.03 0.00 87 1021.5
20260904213904 68 149 0.0 0.0 0.00 0.03 0.00 87 1021.5
20260904213404 68 148 0.0 0.0 0.00 0.03 0.00 86 1021.6
20260904212904 68 168 0.0 0.0 0.00 0.03 0.00 86 1021.6
20260904212404 68 167 0.0 0.0 0.00 0.03 0.00 86 1021.7
20260904211904 68 168 0.0 0.0 0.00 0.03 0.00 87 1021.8
20260904210404 68 156 2.0 6.0 0.00 0.03 0.00 86 1021.8
20260904205904 68 165 4.0 7.0 0.00 0.03 0.00 86 1021.9
20260904205404 69 161 2.0 5.0 0.00 0.03 0.00 86 1022.0
20260904204904 69 160 0.0 0.0 0.00 0.03 0.00 86 1022.1
20260904203904 69 147 2.0 5.0 0.00 0.03 0.00 86 1022.1
20260904203404 69 151 3.0 7.0 0.00 0.03 0.00 86 1022.2
20260904202905 69 152 2.0 5.0 0.00 0.03 0.00 86 1022.2
20260904201904 69 161 1.0 5.0 0.00 0.03 0.00 86 1022.3
20260904201404 69 160 2.0 6.0 0.00 0.03 0.00 86 1022.2
20260904200904 69 160 4.0 8.0 0.00 0.03 0.00 86 1022.3
20260904200405 69 0 2.0 7.0 0.00 0.03 0.00 86 1022.3
20260904195404 68 152 0.0 0.0 0.02 0.03 0.03 86 1022.3
20260904194905 68 162 0.0 0.0 0.02 0.03 0.03 86 1022.4
20260904194404 68 165 0.0 0.0 0.02 0.03 0.03 86 1022.3
20260904193904 68 152 0.0 0.0 0.02 0.03 0.03 86 1022.4
20260904193404 68 147 0.0 0.0 0.02 0.03 0.03 86 1022.4
20260904192904 68 144 0.0 0.0 0.02 0.03 0.03 86 1022.4
20260904192404 68 161 0.0 0.0 0.02 0.03 0.03 85 1022.4
20260904191904 68 174 0.0 0.0 0.02 0.03 0.03 85 1022.5
20260904191404 69 161 0.0 0.0 0.02 0.03 0.03 85 1022.4
20260904190405 69 167 0.0 0.0 0.02 0.03 0.03 84 1022.6
20260904185903 69 7 0.0 0.0 0.01 0.02 0.02 83 1022.6
20260904185404 69 159 0.0 0.0 0.00 0.02 0.02 83 1022.6
20260904184404 69 158 0.0 0.0 0.00 0.02 0.02 83 1022.6
20260904183904 69 158 0.0 0.0 0.00 0.02 0.02 83 1022.6
20260904183405 69 159 0.0 0.0 0.00 0.02 0.02 84 1022.6
20260904182904 69 160 0.0 0.0 0.00 0.02 0.02 84 1022.6
20260904182405 69 164 0.0 0.0 0.00 0.02 0.02 84 1022.6
20260904181904 69 154 0.0 0.0 0.00 0.02 0.02 84 1022.5
20260904181405 69 161 0.0 0.0 0.00 0.02 0.02 84 1022.6
20260904180904 69 161 0.0 0.0 0.00 0.02 0.02 84 1022.6
20260904180404 69 163 0.0 0.0 0.00 0.02 0.02 84 1022.6
20260904175905 69 162 0.0 0.0 0.00 0.02 0.02 84 1022.6
20260904174905 69 161 0.0 0.0 0.00 0.02 0.02 85 1022.6
20260904174404 69 165 0.0 0.0 0.00 0.02 0.02 85 1022.6
20260904173904 69 164 0.0 0.0 0.00 0.02 0.02 85 1022.6
20260904173404 69 167 0.0 0.0 0.00 0.02 0.02 85 1022.7
20260904172404 69 165 0.0 0.0 0.00 0.02 0.02 84 1022.7
20260904171404 69 165 0.0 0.0 0.00 0.02 0.02 84 1022.7
20260904170404 69 164 0.0 0.0 0.00 0.02 0.02 84 1022.6
20260904165904 69 163 0.0 0.0 0.00 0.02 0.02 84 1022.7
20260904165404 69 163 0.0 0.0 0.00 0.02 0.02 84 1022.6
20260904164905 70 154 0.0 0.0 0.00 0.02 0.02 84 1022.6
20260904164405 70 154 0.0 0.0 0.00 0.02 0.02 84 1022.6
20260904163905 70 154 0.0 0.0 0.00 0.02 0.02 84 1022.6
20260904163406 70 154 0.0 0.0 0.00 0.02 0.02 84 1022.6
20260904162906 70 154 0.0 0.0 0.00 0.02 0.02 84 1022.5
20260904162405 70 155 0.0 0.0 0.00 0.02 0.02 84 1022.6
20260904161906 70 138 0.0 0.0 0.00 0.02 0.02 84 1022.5
20260904161405 70 35 0.0 0.0 0.00 0.02 0.02 83 1022.4
20260904160905 71 81 0.0 0.0 0.00 0.02 0.02 83 1022.3
20260904155906 71 108 0.0 0.0 0.00 0.02 0.02 83 1022.2
20260904155405 71 54 0.0 0.0 0.00 0.02 0.02 83 1022.2
20260904154907 71 107 0.0 0.0 0.00 0.02 0.02 83 1022.2
20260904153406 71 163 0.0 0.0 0.00 0.02 0.02 82 1021.8
20260904152406 72 150 0.0 0.0 0.00 0.02 0.02 82 1021.7
20260904151905 72 150 0.0 0.0 0.00 0.02 0.02 81 1021.6
20260904151406 72 148 0.0 1.0 0.00 0.02 0.02 81 1021.5
20260904150907 72 159 2.0 5.0 0.00 0.02 0.02 81 1021.5
20260904145905 72 126 1.0 5.0 0.00 0.02 0.02 80 1021.4
20260904145405 72 94 1.0 8.0 0.00 0.02 0.02 79 1021.4
20260904144905 73 125 1.0 8.0 0.00 0.02 0.02 79 1021.3
20260904144406 73 100 1.0 8.0 0.00 0.02 0.02 79 1021.3
20260904143905 73 127 2.0 6.0 0.00 0.02 0.02 78 1021.3
20260904143405 73 133 3.0 7.0 0.00 0.02 0.02 78 1021.2
20260904142906 73 98 2.0 6.0 0.00 0.02 0.02 78 1021.1
20260904142406 73 122 2.0 8.0 0.00 0.02 0.02 78 1021.1
20260904141905 73 113 3.0 7.0 0.00 0.02 0.02 78 1021.1
20260904141406 74 132 2.0 8.0 0.00 0.02 0.02 78 1021.0
20260904140906 73 88 2.0 10.0 0.00 0.02 0.02 77 1020.9
20260904140405 73 83 3.0 8.0 0.00 0.02 0.02 77 1020.8
20260904135905 74 99 2.0 9.0 0.00 0.02 0.02 77 1020.7
20260904135405 74 75 3.0 9.0 0.00 0.02 0.02 77 1020.6
20260904134905 74 74 4.0 10.0 0.00 0.02 0.02 77 1020.7
20260904134406 74 103 2.0 12.0 0.00 0.02 0.02 76 1020.6
20260904133906 74 83 5.0 10.0 0.00 0.02 0.02 75 1020.6
20260904133405 74 84 6.0 12.0 0.00 0.02 0.02 75 1020.6
20260904132906 74 67 5.0 13.0 0.00 0.02 0.02 75 1020.5
20260904131905 75 77 7.0 13.0 0.00 0.02 0.02 75 1020.4
20260904131405 75 73 5.0 13.0 0.00 0.02 0.02 74 1020.4
20260904130906 75 73 6.0 14.0 0.00 0.02 0.02 73 1020.4
20260904130405 75 89 7.0 13.0 0.00 0.02 0.02 72 1020.4
20260904125905 75 77 7.0 14.0 0.00 0.02 0.02 71 1020.4
20260904125405 75 85 6.0 12.0 0.00 0.02 0.02 73 1020.3
20260904124905 75 78 2.0 10.0 0.00 0.02 0.02 74 1020.3
20260904124406 75 82 5.0 13.0 0.00 0.02 0.02 74 1020.3
20260904123905 76 72 5.0 12.0 0.00 0.02 0.02 74 1020.3
20260904123406 75 95 7.0 12.0 0.00 0.02 0.02 73 1020.2
20260904122905 75 73 9.0 15.0 0.00 0.02 0.02 73 1020.2
20260904122405 76 51 6.0 12.0 0.00 0.02 0.02 73 1020.1
20260904121905 76 76 6.0 14.0 0.00 0.02 0.02 72 1020.1
20260904121405 76 74 6.0 12.0 0.00 0.02 0.02 73 1020.1
20260904120905 75 102 7.0 12.0 0.00 0.02 0.02 73 1020.1
20260904120406 76 75 7.0 15.0 0.00 0.02 0.02 72 1020.0
20260904115905 76 81 9.0 15.0 0.00 0.02 0.02 72 1020.1
20260904115405 76 91 5.0 12.0 0.00 0.02 0.02 72 1020.2